sat.trackr.live / text

‹ back to catalog

STARLINK-31148

NORAD 58741 · 2024-005P

PAYLOAD ACTIVE UNKNOWN

§ Identity

Operator
Country
US
Launch date
2024-01-07
Launch site
AFETR
Launch vehicle
Mass (kg)
RCS (m²)

Purposes: comms

External: N2YO · Heavens-Above · Gunter

§ Orbital elements

Epoch: 2026-09-20T12:30:07.865568Z

Period
94.27 min
Inclination
42.9954°
Eccentricity
0.0000337
Mean motion
15.27574738 rev/d
Perigee alt
482.8 km
Apogee alt
483.3 km
Semi-major
6,861.2 km
B*
-6.0389e-6
RAAN
199.1976°
Arg perigee
40.5944°
Mean anomaly
319.4933°
Rev number
15,024

§ Raw data

STARLINK-311481 58741U 24005P   26263.52092437 -.00000428  00000+0 -60389-5 0  99932 58741  42.9954 199.1976 0000337  40.5944 319.4933 15.27574738150244

JSON: /api/v1/satellites/58741 · /tle

For live sub-satellite position, see the globe view (requires WebGL).

§ Visibility from observer

Set your observer location to see the next 7 days of passes ≥ 10°. The values pass through the URL so the page stays shareable.

No JS? Fill the form by hand. The geolocation button needs JavaScript.